Location: Bühlhof
(48.7849°N, 8.6361°E)
Time: 08:23:20
(UTC+00:00)

Envisat - Visible Passes

Search period start: 12 March 2026 00:00
Search period end: 22 March 2026 00:00
Orbit: 761 x 763 km, 98.4° (Epoch: 11 March)

Date Brightness Start Highest point End Pass type
(mag) Time Alt. Az. Time Alt. Az. Time Alt. Az.
12 Mar 5.3 01:21:00 10° NNE 01:22:59 20° NE 01:22:59 20° NE visible
12 Mar 4.0 02:59:44 10° N 03:03:07 34° NNW 03:03:07 34° NNW visible
13 Mar 5.9 00:44:29 10° NE 00:44:51 11° ENE 00:44:51 11° ENE visible
13 Mar 4.0 02:21:43 10° NNE 02:24:59 41° N 02:24:59 41° N visible
13 Mar 4.7 04:02:11 10° NNW 04:05:00 15° NW 04:05:07 15° WNW visible
14 Mar 4.7 01:44:02 10° NNE 01:46:52 30° NE 01:46:52 30° NE visible
14 Mar 4.2 03:23:23 10° N 03:27:00 27° NW 03:27:00 27° NW visible
15 Mar 5.4 01:06:52 10° NE 01:08:44 18° ENE 01:08:44 18° ENE visible
15 Mar 3.7 02:45:09 10° N 02:48:52 43° NNW 02:48:52 43° NNW visible
15 Mar 5.1 04:27:42 10° NW 04:27:57 10° NW 04:28:12 10° NW visible
16 Mar 4.0 02:07:15 10° NNE 02:10:45 44° NNE 02:10:45 44° NNE visible
16 Mar 4.5 03:47:14 10° NNW 03:50:44 19° WNW 03:50:53 19° WNW visible
17 Mar 4.8 01:29:44 10° NNE 01:32:38 27° ENE 01:32:38 27° ENE visible
17 Mar 3.8 03:08:43 10° N 03:12:46 35° NW 03:12:46 35° NW visible
18 Mar 5.5 00:52:54 10° NE 00:54:29 15° ENE 00:54:29 15° ENE visible
18 Mar 3.4 02:30:37 10° N 02:34:38 54° N 02:34:38 54° N visible
18 Mar 4.9 04:11:30 10° NNW 04:13:44 13° NW 04:14:46 12° WNW visible
19 Mar 4.0 01:52:51 10° NNE 01:56:30 43° NE 01:56:30 43° NE visible
19 Mar 4.2 03:32:26 10° N 03:36:26 24° WNW 03:36:38 24° WNW visible
20 Mar 5.0 01:15:31 10° NE 01:18:23 24° ENE 01:18:23 24° ENE visible
20 Mar 3.4 02:54:05 10° N 02:58:31 45° NW 02:58:31 45° NW visible
21 Mar 5.7 00:39:16 10° ENE 00:40:15 12° ENE 00:40:15 12° ENE visible
21 Mar 3.3 02:16:07 10° NNE 02:20:23 63° NNE 02:20:23 63° NNE visible
21 Mar 4.6 03:56:23 10° NNW 03:59:28 17° NW 04:00:31 16° WNW visible
